Salem, OR

3:32 AM PDT on May 26, 2017 (GMT -0700)
McNary

Weather History for KSLE - November, 2011

Change the Weather History Date:

Tuesday, November 1, 2011

  Actual Average Record
Temperature  
Mean Temperature 40 °F 49 °F  
Max Temperature 50 °F 57 °F 72 °F (1969)
Min Temperature 30 °F 40 °F 14 °F (1935)
Degree Days  
Heating Degree Days 25 16  
Month to date heating degree days 25 16  
Since 1 July heating degree days 421 548  
Cooling Degree Days 0 0  
Month to date cooling degree days 0 0  
Year to date cooling degree days 316 290  
Moisture  
Dew Point 34 °F    
Average Humidity 83    
Maximum Humidity 100    
Minimum Humidity 66    
Precipitation  
Precipitation 0.00 in 0.16 in 1.41 in (1948)
Month to date precipitation 0.00 0.16  
Year to date precipitation 26.60 26.47  
Snow  
Snow 0.00 in - - ()
Month to date snowfall 0.0  
Snow Depth 0.00 in    
Sea Level Pressure  
Sea Level Pressure 30.48 in    
Wind  
Wind Speed 3 mph (NE)    
Max Wind Speed 10 mph    
Max Gust Speed 13 mph    
Visibility 3 miles    
Events Fog    
T = Trace of Precipitation, MM = Missing Value Source: NWS Daily Summary

Daily Weather History Graph

Daily Weather History Graph

Search for Another Location

Airport or City:

Trip Planner

Search our weather history database for the weather conditions in past years. The results will help you decide how hot, cold, wet, or windy it might be!

Date:

Astronomy

Nov. 01, 2011 Rise Set
Actual Time 7:50 AM PDT 6:00 PM PDT
Civil Twilight 7:19 AM PDT 6:30 PM PDT
Nautical Twilight 6:44 AM PDT 7:05 PM PDT
Astronomical Twilight 6:10 AM PDT 7:39 PM PDT
Moon 1:42 PM PDT (11/1) 11:47 PM PDT (11/1)
Length of Visible Light 11h 11m
Length of Day
10h 10m
Waxing Crescent, 41% of the Moon is Illuminated
Nov 1
Waxing Crescent
Nov 2
First Quarter
Nov 10
Full
Nov 18
Last Quarter
Nov 24
New

Hourly Weather History & Observations

Time (PDT) Temp. Windchill Dew Point Humidity Pressure Visibility Wind Dir Wind Speed Gust Speed Precip Events Conditions
12:10 AM 37.4 °F - 35.6 °F 93% 30.47 in 3.0 mi Calm Calm - N/A   Partly Cloudy
12:15 AM 35.6 °F - 35.6 °F 100% 30.47 in 1.8 mi Calm Calm - N/A   Partly Cloudy
12:24 AM 37.4 °F - 35.6 °F 93% 30.48 in 4.0 mi Calm Calm - N/A   Clear
12:46 AM 35.6 °F - 33.8 °F 93% 30.48 in 1.8 mi Calm Calm - N/A   Clear
1:03 AM 37.4 °F - 35.6 °F 93% 30.48 in 4.0 mi Calm Calm - N/A   Clear
1:14 AM 35.6 °F - 33.8 °F 93% 30.48 in 1.5 mi Calm Calm - N/A   Clear
1:19 AM 35.6 °F - 33.8 °F 93% 30.48 in 0.8 mi Calm Calm - N/A   Partly Cloudy
1:42 AM 35.6 °F - 33.8 °F 93% 30.48 in 1.5 mi Calm Calm - N/A   Partly Cloudy
1:46 AM 35.6 °F - 35.6 °F 100% 30.48 in 3.0 mi Calm Calm - N/A   Partly Cloudy
1:56 AM 35.1 °F - 33.1 °F 92% 30.48 in 4.0 mi Calm Calm - N/A   Partly Cloudy
2:02 AM 33.8 °F - 33.8 °F 100% 30.48 in 1.8 mi Calm Calm - N/A   Partly Cloudy
2:10 AM 33.8 °F - 33.8 °F 100% 30.48 in 3.0 mi Calm Calm - N/A   Clear
2:33 AM 33.8 °F - 33.8 °F 100% 30.48 in 1.8 mi Calm Calm - N/A   Clear
2:41 AM 33.8 °F - 33.8 °F 100% 30.48 in 1.2 mi Calm Calm - N/A   Clear
2:45 AM 33.8 °F - 32.0 °F 93% 30.48 in 2.0 mi Calm Calm - N/A   Clear
2:54 AM 33.8 °F - 33.8 °F 100% 30.49 in 5.0 mi Calm Calm - N/A   Clear
2:56 AM 34.0 °F - 33.1 °F 96% 30.49 in 3.0 mi Calm Calm - N/A   Clear
2:59 AM 33.8 °F - 32.0 °F 93% 30.49 in 1.5 mi Calm Calm - N/A   Partly Cloudy
3:06 AM 33.8 °F - 32.0 °F 93% 30.49 in 1.2 mi Calm Calm - N/A   Partly Cloudy
3:20 AM 33.8 °F - 33.8 °F 100% 30.49 in 0.8 mi Calm Calm - N/A   Mostly Cloudy
3:38 AM 33.8 °F - 32.0 °F 93% 30.49 in 1.5 mi Calm Calm - N/A   Mostly Cloudy
3:41 AM 33.8 °F - 32.0 °F 93% 30.49 in 3.0 mi Calm Calm - N/A   Scattered Clouds
3:53 AM 33.8 °F - 32.0 °F 93% 30.49 in 1.8 mi Calm Calm - N/A   Partly Cloudy
3:56 AM 33.1 °F - 32.0 °F 96% 30.49 in 1.2 mi Calm Calm - N/A   Clear
4:14 AM 33.8 °F - 32.0 °F 93% 30.49 in 0.8 mi Calm Calm - N/A   Scattered Clouds
4:21 AM 32.0 °F - 30.2 °F 93% 30.49 in 1.0 mi Calm Calm - N/A   Mostly Cloudy
4:28 AM 32.0 °F - 30.2 °F 93% 30.49 in 0.8 mi Calm Calm - N/A   Mostly Cloudy
4:36 AM 33.8 °F - 30.2 °F 87% 30.48 in 1.0 mi Calm Calm - N/A   Overcast
4:43 AM 33.8 °F - 32.0 °F 93% 30.49 in 2.0 mi Calm Calm - N/A   Mostly Cloudy
4:46 AM 33.8 °F - 30.2 °F 87% 30.49 in 3.0 mi Calm Calm - N/A   Scattered Clouds
4:56 AM 33.1 °F 30.0 °F 32.0 °F 96% 30.50 in 4.0 mi SE 3.5 mph - N/A   Scattered Clouds
5:00 AM 33.8 °F 29.6 °F 32.0 °F 93% 30.49 in 1.8 mi ESE 4.6 mph - N/A   Scattered Clouds
5:04 AM 30.2 °F 24.3 °F 30.2 °F 100% 30.49 in 0.8 mi SE 5.8 mph - N/A   Scattered Clouds
5:12 AM 30.2 °F 26.7 °F 28.4 °F 93% 30.49 in 0.5 mi SSE 3.5 mph - N/A Fog Light Freezing Fog
6:01 AM 33.8 °F - 32.0 °F 93% 30.50 in 2.0 mi Calm Calm - N/A   Mostly Cloudy
6:07 AM 33.8 °F - 32.0 °F 93% 30.50 in 6.0 mi Calm Calm - N/A   Scattered Clouds
6:29 AM 32.0 °F - 30.2 °F 93% 30.50 in 1.8 mi Calm Calm - N/A   Clear
6:33 AM 32.0 °F - 30.2 °F 93% 30.50 in 0.8 mi Calm Calm - N/A   Clear
6:46 AM 33.8 °F - 32.0 °F 93% 30.51 in 1.5 mi Calm Calm - N/A   Scattered Clouds
6:49 AM 33.8 °F - 32.0 °F 93% 30.51 in 0.5 mi Calm Calm - N/A Fog Fog
6:56 AM 30.0 °F - 30.0 °F 100% 30.51 in 0.2 mi Calm Calm - N/A Fog Light Freezing Fog
7:56 AM 32.0 °F - 30.0 °F 92% 30.52 in 0.2 mi Calm Calm - N/A Fog Fog
8:56 AM 33.1 °F - 33.1 °F 100% 30.54 in 0.2 mi Calm Calm - N/A Fog Fog
9:56 AM 35.1 °F - 35.1 °F 100% 30.54 in 0.2 mi Calm Calm - N/A Fog Fog
10:56 AM 37.9 °F 34.4 °F 37.0 °F 97% 30.55 in 0.2 mi NNW 4.6 mph - N/A Fog Fog
11:22 AM 39.2 °F - 39.2 °F 100% 30.54 in 0.5 mi Calm Calm - N/A Fog Fog
11:56 AM 41.0 °F 39.0 °F 39.0 °F 93% 30.55 in 1.0 mi NNE 3.5 mph - N/A   Overcast
2:27 PM 46.4 °F 43.5 °F 39.2 °F 76% 30.49 in 7.0 mi North 5.8 mph - N/A   Scattered Clouds
2:56 PM 48.0 °F - 39.9 °F 74% 30.48 in 10.0 mi North 5.8 mph - N/A   Scattered Clouds
3:56 PM 50.0 °F - 39.0 °F 66% 30.46 in 10.0 mi North 10.4 mph - N/A   Clear
4:56 PM 50.0 °F - 39.0 °F 66% 30.45 in 10.0 mi North 8.1 mph - N/A   Clear
5:56 PM 46.0 °F 43.9 °F 37.9 °F 73% 30.43 in 10.0 mi North 4.6 mph - N/A   Clear
6:56 PM 43.0 °F - 37.9 °F 82% 30.42 in 10.0 mi Calm Calm - N/A   Clear
7:56 PM 41.0 °F - 37.9 °F 89% 30.39 in 10.0 mi Calm Calm - N/A   Clear
8:56 PM 39.0 °F - 37.0 °F 93% 30.38 in 8.0 mi Calm Calm - N/A   Clear
9:56 PM 39.0 °F - 37.0 °F 93% 30.37 in 6.0 mi Calm Calm - N/A   Clear
10:56 PM 37.0 °F - 35.1 °F 93% 30.36 in 6.0 mi Calm Calm - N/A   Clear
11:56 PM 35.1 °F - 33.1 °F 92% 30.34 in 6.0 mi Calm Calm - N/A   Clear